Flag for Canada Weather past 2 weeks in Prince Albert, Saskatchewan, Canada

Now
54 °F

Passing clouds.


Feels Like: 53 °F
Forecast: 47 / 64 °F
Wind: 3 mph from North

Location: Prince Albert

Current Time: Aug 21, 2014 at 10:43:23 PM

Latest Report: Aug 21, 2014 at 10:00 PM


Visibility: 15 mi

Pressure: 30.19 "Hg

Humidity: 88%

Dew point: 50 °F

Location of Prince AlbertLocation

Historic Weather in Prince Albert — Graph

°F

Prince Albert temperature yesterday

Maximum temperature yesterday: 68 °F (at 12:00 PM)
Minimum temperature yesterday: 54 °F (at 11:00 PM)
Average temperature yesterday: 63 °F

Past Weeks' High & Low Weather Summary

 TemperatureHumidityPressure
High86 °F (Aug 14, 4:00 PM)100% (Aug 6, 9:00 PM)30.23 "Hg (Aug 6, 9:00 PM)
Low46 °F (Aug 10, 4:00 AM)40% (Aug 7, 5:00 PM)29.62 "Hg (Aug 20, 2:00 AM)
Average66 °F80%29.92 "Hg
* Reported Aug 6 9:00 PM — Aug 21 9:00 PM, Prince Albert, Weather by CustomWeather, © 2014

Note: Actual official high and low records may vary slightly from our data, if they occured in-between our weather recording intervals... More about our weather records

Advertising

Prince Albert weather history for previous 24 hours

 ConditionsComfort  
Time TempWeatherWind HumidityBarometerVisibility
9:00 PM
Aug 21
54 °FPassing clouds.5 mph88%30.19 "Hg15 mi
8:00 PM55 °FPartly sunny.5 mph82%30.17 "Hg15 mi
7:00 PM59 °FBroken clouds.8 mph72%30.16 "Hg15 mi
6:00 PM61 °FBroken clouds.9 mph77%30.15 "Hg15 mi
5:00 PM63 °FBroken clouds.12 mph73%30.13 "Hg15 mi
4:00 PM63 °FBroken clouds.12 mph73%30.11 "Hg15 mi
3:00 PM63 °FPartly sunny.13 mph73%30.11 "Hg15 mi
2:00 PM63 °FBroken clouds.15 mph77%30.09 "Hg15 mi
1:00 PM66 °FPartly sunny.13 mph68%30.08 "Hg15 mi
12:00 PM66 °FPartly sunny.12 mph68%30.07 "Hg15 mi
11:00 AM64 °FPartly sunny.10 mph78%30.06 "Hg15 mi
10:00 AM63 °FPartly sunny.8 mph83%30.05 "Hg15 mi
9:00 AM61 °FBroken clouds.8 mph88%30.03 "Hg15 mi
8:00 AM57 °FBroken clouds.7 mph94%30.02 "Hg15 mi
7:00 AM55 °FBroken clouds.5 mph94%30.01 "Hg15 mi
6:00 AM55 °FPartly sunny.7 mph94%29.99 "Hg15 mi
5:00 AM55 °FPassing clouds.6 mph100%29.96 "Hg15 mi
4:00 AM59 °FPartly cloudy.9 mph94%29.94 "Hg15 mi
3:00 AM55 °FPassing clouds.2 mph100%29.93 "Hg15 mi
2:00 AM55 °FPassing clouds.8 mph100%29.90 "Hg15 mi
1:00 AM54 °FPassing clouds.3 mph100%29.90 "Hg15 mi
12:00 AM52 °FPassing clouds.3 mph100%29.90 "Hg15 mi
11:00 PM
Aug 20
54 °FPassing clouds.2 mph100%29.88 "Hg15 mi
10:00 PM55 °FPassing clouds.2 mph100%29.87 "Hg15 mi
Weather by CustomWeather, © 2014

See weather overviewHow to use our weather pages